Content
SEND FEEDBACK

Daily
Averages
Monthly
Summary
United States of America

ANN ARBOR, MICHIGAN


Home > North America > United States > Michigan
Elevation: 759 feet     Latitude: 42 17N     Longitude: 083 43W

WEATHER
 
SELECT A DAY
Number of Records: 208,012;   Date Range: 1/1/95 - 11/22/14
 
SHARE

PRINT THIS DATA

[ ← Previous Day ]
WEATHER ALMANAC - NOVEMBER 13, 2013
[ Next Day → ]
[ °C ]   °F
Weather ElementAverageHighLow
Temperature28.8 °F39.9 °F (1:53 pm)16 °F (1:53 am)
Dewpoint15.6 °F23 °F (9:53 am)9 °F (2:53 pm)
Humidity62.3 %96 % (7:53 am)28 % (2:53 pm)
Barometer30.40 in30.55 in (1:53 am)30.18 in (11:53 pm)
Wind Speed11.2 mph18.4 mph (1:53 pm)
Wind Gust26.5 mph (1:53 pm)
Weather ElementAverage
Visibility10 mi
Wind DirectionSW (221.3 °)

Weather ElementTotal
Precipitation---
Heating Degree Days37.1 (Base 65)
Averaged from 23 records on November 13, 2013
WEATHER CONDITIONS BREAKOUT
WIND DIRECTION BREAKOUT
WEATHER BY HOUR - NOVEMBER 13, 2013
[ °C ]   °F
Local TimeTemperatureDewpointHumidityBarometerVisibilityWind DirectionWind SpeedGust SpeedPrecipitationEventsConditions
1:53 AM16.0 °F12.9 °F88 %30.55 in10.0 miSW (230°)3.5 mphClear
2:53 AM19.0 °F15.1 °F85 %30.55 in10.0 miWest (260°)4.6 mphClear
3:53 AM16.0 °F12.9 °F88 %30.54 in10.0 miCalmClear
4:53 AM17.1 °F12.9 °F84 %30.53 in10.0 miWSW (250°)4.6 mphClear
5:53 AM17.1 °F15.1 °F92 %30.52 in10.0 miWSW (250°)4.6 mphClear
6:53 AM18.0 °F15.1 °F88 %30.52 in10.0 miSW (230°)3.5 mphClear
7:53 AM16.0 °F15.1 °F96 %30.52 in10.0 miSW (230°)4.6 mphClear
8:53 AM25.0 °F19.9 °F81 %30.52 in10.0 miSW (220°)8.1 mphClear
9:53 AM28.9 °F23.0 °F78 %30.50 in10.0 miSW (220°)10.4 mphClear
10:53 AM32.0 °F21.9 °F66 %30.48 in10.0 miSW (220°)9.2 mphClear
11:53 AM37.0 °F18.0 °F46 %30.45 in10.0 miWSW (240°)17.3 mph20.7 mphClear
12:53 PM39.0 °F12.9 °F34 %30.42 in10.0 miWSW (240°)17.3 mph24.2 mphClear
1:53 PM39.9 °F10.9 °F31 %30.40 in10.0 miSW (230°)18.4 mph26.5 mphClear
2:53 PM39.9 °F9.0 °F28 %30.36 in10.0 miWSW (250°)18.4 mphClear
3:53 PM39.0 °F10.0 °F30 %30.35 in10.0 miSW (230°)12.7 mphClear
4:53 PM36.0 °F14.0 °F41 %30.33 in10.0 miSW (230°)12.7 mphClear
5:53 PM34.0 °F15.1 °F46 %30.31 in10.0 miSW (220°)15.0 mph21.9 mphClear
6:53 PM33.1 °F16.0 °F50 %30.30 in10.0 miSSW (210°)10.4 mphClear
7:53 PM32.0 °F19.0 °F59 %30.27 in10.0 miSW (220°)13.8 mph23.0 mphClear
8:53 PM32.0 °F18.0 °F56 %30.25 in10.0 miSW (220°)16.1 mphClear
9:53 PM32.0 °F18.0 °F56 %30.22 in10.0 miSW (220°)17.3 mph26.5 mphClear
10:53 PM32.0 °F18.0 °F56 %30.20 in10.0 miSW (230°)17.3 mph25.3 mphClear
11:53 PM32.0 °F17.1 °F54 %30.18 in10.0 miWSW (240°)17.3 mph25.3 mphClear
Hourly data recorded from KARB, located miles away from Ann Arbor, Michigan







STORIES FROM OUR PARTNERS